Location: Musselshell
(46.5176°N, 108.0911°W)
Time: 15:52:37
(UTC+00:00)

YUBILEINY - Pass Details

Date: 01 July 2022
Orbit: 1478 x 1509 km, 82.5° (Epoch: 14 August)

Event Time Altitude Azimuth Distance (km) Brightness Sun altitude
Rises 03:34:02 0° 264° (W) 4,648 ? -4.2°
Reaches altitude 10° 03:39:58 10° 295° (WNW) 3,673 ? -5.0°
Maximum altitude 03:42:46 12° 314° (NW) 3,545 ? -5.3°
Drops below altitude 10° 03:45:34 10° 333° (NNW) 3,676 ? -5.7°
Sets 03:51:34 0° 4° (N) 4,657 ? -6.4°
